www.pogodaiklimat.ru

Погода и климат >> Архив погоды >> Россия >> Краснодарский край >> Сочи аэропорт (Адлер)


ПОГОДА в Сочи аэропорт (Адлере)

  • Прогноз погоды в Сочи аэропорт (Адлере)
  • Монитор погоды в Сочи аэропорт (Адлере)

АРХИВ ПОГОДЫ в Сочи аэропорт (Адлере)

Время (UTC), дата Ветер
(напр.,м/с)
 
Видим.   Явления Облачность Т
(С)
Тd
(С)
f
(%)
Тe
(С)
Тes
(С)
Комфортность P
(гПа)
Po
(гПа)
Тmin
(С)
Tmax
(С)
R
(мм)
R24
(мм)
S
(см)
12 14.04 ЮВ 2 20 км 10/3 1500 м
[Cb cap Ac und]
+22.2 +4.3 31 +22 +24 комфорт 1007.8 1006.0
15 14.04 З 2 20 км 10/3 1500 м
[Cb cap Ac und]
+20.0 +6.8 42 +21 +22 комфорт 1006.0 1004.3 +23.2
18 14.04 С 1 4000 м 10/4 1500 м
[Cb cap Ac und]
+16.1 +8.6 61 +17 +17 1007.0 1005.2
21 14.04 З 4 4000 м слаб. ливневой дождь 10/8 1200 м
[Cb cap Ac und]
+14.7 +9.7 72 +14 +14 1009.3 1007.5
00 15.04 З 4 4000 м слаб. ливневой дождь 10/8
[Cb cap Ac und]
+12.7 +11.2 91 +11 +11 1009.5 1007.7
03 15.04 ЮЗ 4 10 км слаб. ливневой дождь 10/10 750 м
[Cb cap]
+13.1 +12.2 94 +11 +11 1012.6 1010.8 +11.7 6
06 15.04 ЮВ 3 10 км в посл. час ливневой дождь 10/10 150 м
[Cb cap]
+12.7 +12.1 96 +11 +11 1014.2 1012.4 +11.6
09 15.04 Ю 4 10 км 9/5 270 м
[St Ac trans]
+15.6 +12.3 81 +15 +17 1014.1 1012.3
12 15.04 З 3 10 км 9/8 300 м
[St Ac trans]
+14.5 +12.1 86 +14 +15 1012.9 1011.1
15 15.04 З 7
{11}
20 км 10/0
[Ac As]
+13.9 +11.1 83 +12 +12 1010.8 1009.0 +16.4 6
18 15.04 З 4
{11}
4000 м 10/0
[Ac und]
+13.2 +11.7 91 +11 +11 1012.1 1010.3
21 15.04 СЗ 4 4000 м в посл. час ливневой дождь 10/3 1500 м
[Cb cap Ac As]
+12.1 +11.1 94 +10 +10 1013.5 1011.7
00 16.04 З 4 4000 м слаб. ливневой дождь 10/8 1350 м
[Cb cap Ac und]
+11.9 +11.0 94 +10 +10 1013.8 1012.0
03 16.04 З 2 10 км слаб. ливневой дождь 10/10 420 м
[Cb cap]
+11.6 +11.2 97 +10 +10 1014.4 1012.6 +11.3 4
06 16.04 З 2 10 км в посл. час ливневой дождь 10/6 1440 м
[Cb cap Ac und]
+12.6 +10.9 89 +12 +13 1014.9 1013.1
09 16.04 З 5 10 км 9/6 1380 м
[Sc Ac trans]
+14.4 +11.4 82 +13 +15 1014.4 1012.6
12 16.04 З 7-10
{10}
10 км 10/1 600 м
[Cu hum Ci fib]
+14.0 +10.4 79 +12 +14 1013.2 1011.4
15 16.04 З 9-12
{12}
20 км 10/0
[Ac As]
+11.7 +11.0 95 +8 +8 1012.1 1010.3 +15.1
18 16.04 З 8-11
{13}
4000 м 10/1 1000 м
[Sc Cs]
+11.1 +8.5 84 +7 +7 1012.5 1010.7
21 16.04 З 4
{10}
4000 м 10/6 500 м
[St Cs]
+10.5 +9.3 92 +8 +8 1011.6 1009.8
00 17.04 В 2
{10}
4000 м 10/10 330 м
[St]
+10.0 +8.8 92 +8 +8 1010.0 1008.2
03 17.04 В 4 10 км 10/9 400 м
[St Ac und]
+10.7 +9.3 91 +8 +8 1009.0 1007.2 +9.5
06 17.04 В 3 10 км 6/3 300 м
[St Ac trans]
+13.6 +9.5 76 +12 +16 1008.8 1007.0
09 17.04 Ю 3 10 км 9/9 540 м
[Sc]
+13.9 +10.3 79 +13 +14 1009.2 1007.4
12 17.04 ЮВ 3 10 км 10/10 630 м
[Sc]
+13.1 +9.5 79 +12 +12 1010.3 1008.5
15 17.04 В 3 10 км 10/10 420 м
[Frnb]
+12.6 +9.9 84 +11 +11 1011.3 1009.5 +15.2
18 17.04 В 4 4000 м 10/10 300 м
[Sc]
+12.2 +10.5 89 +10 +10 1012.8 1011.0
21 17.04 В 5 4000 м 10/10 240 м
[Cb cap]
+11.9 +10.5 91 +9 +9 1013.6 1011.8
00 18.04 В 7-10
{11}
4000 м в посл. час ливневой дождь 10/10 270 м
[Cb cap]
+11.2 +9.7 90 +8 +8 1014.0 1012.2
03 18.04 В 7-12
{14}
10 км слаб. ливневой дождь 10/10 210 м
[Cb cap]
+10.3 +9.5 95 +6 +6 1015.1 1013.3 +10.1 0.0
06 18.04 В 6-11
{14}
10 км слаб. ливневой дождь 10/10 210 м
[Cb cap]
+10.7 +9.7 94 +7 +7 1016.6 1014.8 +9.9
09 18.04 ЮВ 5
{11}
10 км слаб. ливневой дождь 10/10 210 м
[Cb cap]
+11.5 +10.3 92 +9 +9 1017.8 1016.0
12 18.04 В 4
{11}
10 км слаб. ливневой дождь 10/10 210 м
[Cb cap]
+11.1 +10.3 95 +9 +9 1018.1 1016.3
15 18.04 В 3 10 км слаб. ливневой дождь 10/10 210 м
[Cb cap]
+10.7 +9.9 95 +9 +9 1017.9 1016.1 +12.1 1
18 18.04 ЮВ 3 4000 м слаб. ливневой дождь 10/10 300 м
[Cb cap]
+10.5 +10.2 98 +8 +8 1018.2 1016.4
21 18.04 ЮВ 3 4000 м слаб. ливневой дождь 10/10 240 м
[Cb cap]
+10.1 +9.5 96 +8 +8 1018.0 1016.2
00 19.04 В 3 4000 м слаб. ливневой дождь 10/10 300 м
[Cb cap]
+9.7 +9.0 95 +7 +7 1016.9 1015.1
03 19.04 ЮВ 2 2000 м ливневой дождь 10/10 150 м
[Cb cap]
+9.1 +8.6 97 +7 +7 1016.1 1014.3 +8.9 8
06 19.04 ЮВ 3 10 км слаб. ливневой дождь 10/10 150 м
[Cb cap]
+10.4 +8.4 87 +8 +8 1016.2 1014.4
09 19.04 ЮВ 5 10 км в посл. час ливневой дождь 9/9 240 м
[Cb cap]
+11.2 +9.4 89 +8 +9 1016.5 1014.7
12 19.04 ЮВ 3 10 км {ливн. осадки} 9/3 600 м
[Cb cap Ac trans]
+13.0 +8.6 75 +12 +15 1015.9 1014.1
15 19.04 ЮВ 3 10 км 8/6 600 м
[Cu Sc Ac trans]
+11.6 +8.0 79 +10 +10 1015.9 1014.1 +13.6 5
18 19.04 штиль 0 4000 м 9/9 750 м
[Sc]
+10.5 +7.8 83 +10 +10 1017.2 1015.4
21 19.04 В 2 4000 м 9/9 450 м
[Sc Ac trans]
+10.1 +7.6 84 +9 +9 1016.8 1015.0
00 20.04 ЮВ 4 4000 м 9/9 360 м
[Cb cap]
+9.9 +8.5 91 +7 +7 1016.6 1014.8
03 20.04 В 3 10 км слаб. ливневой дождь 10/10 240 м
[Cb cap]
+9.0 +8.6 97 +6 +6 1016.7 1014.9 +8.8 3
06 20.04 ЮЗ 2 10 км слаб. ливневой дождь 10/10 210 м
[Cb cap]
+9.1 +8.5 96 +7 +7 1018.1 1016.3 +8.6
09 20.04 ЮЗ 2 10 км {ливн. осадки} 10/10 600 м
[Cb cap]
+10.7 +7.1 78 +9 +9 1018.6 1016.8
12 20.04 З 3 10 км {ливн. осадки} 9/9 900 м
[Sc]
+11.4 +4.6 63 +10 +11 1018.6 1016.8
15 20.04 З 4 20 км 9/1 1000 м
[Sc Ac trans]
+10.4 +6.1 75 +8 +8 1018.4 1016.6 +12.7 1
18 20.04 ЮЗ 2 4000 м 10/10 800 м
[Sc]
+10.1 +6.5 78 +9 +9 1018.6 1016.8
21 20.04 В 1 4000 м 10/10 600 м
[Sc]
+9.6 +6.1 79 +9 +9 1018.1 1016.3
00 21.04 С 1 4000 м слаб. морось 10/10 400 м
[Sc]
+8.5 +7.8 95 +8 +8 1016.3 1014.5
03 21.04 штиль 0 20 км {ливн. осадки} 10/5 1200 м
[Sc Ci fib]
+7.7 +6.5 92 +7 +7 1015.4 1013.6 +7.4 0.6
06 21.04 З 1 20 км {морось} 9/3 1000 м
[Cu hum Ac trans]
+10.6 +7.4 81 +10 +14 1015.6 1013.8
09 21.04 З 5 20 км слаб. ливневой дождь 10/8 1470 м
[Cb cap Ac und]
+10.7 +7.8 82 +8 +8 1016.0 1014.2

 

Местоположение метеостанции Сочи аэропорт (Адлер) (Краснодарский край, Россия): широта 43.43 долгота 39.90 высота над уровнем моря 15 м.

В архиве по умолчанию представлена погода в Сочи аэропорт (Адлере) за последнюю неделю. Архивные данные за месяц целиком и за предыдущие месяцы, начиная с января 2011 года, Вы можете получить, выбрав интересующий диапазон дат из раскрывающегося списка и нажав кнопку "Ввод!".


*Определитесь, кто Вы:
робот инопланетянин человек

Внимание! Время в таблицах - всемирное. Для получения местного времени необходимо прибавить поправку, которая равна 3 ч.

Смотрите также архив погоды в соседних городах и на ближайших метеорологических станциях:

Погода в Имеретинке (Краснодарский край, Россия) (5 км)
Погода в Сочи (Краснодарский край, Россия) (20 км)
Погода в Кепше (Краснодарский край, Россия) (24 км)
Погода в Красной Поляне (Краснодарский край, Россия) (37 км)
Погода в Горная Карусель 1500 (Краснодарский край, Россия) (40 км)
Погода в Горная Карусель 1000 (Краснодарский край, Россия) (40 км)
Погода на Кордоне Лаура (Краснодарский край, Россия) (44 км)
Погода в Солох Ауле (Краснодарский край, Россия) (47 км)
Погода в Кичмае (Краснодарский край, Россия) (54 км)
Погода в Гузерипле (Адыгея, Россия) (66 км)

Пояснения к столбцам:

Ветер - указаны скорость ветра в м/с - средняя за 10 мин, порывы в срок и между сроками (в фигурных скобках) и направление, откуда дует ветер: С - северный, СВ - северо-восточный, В - восточный, ЮВ - юго-восточный, Ю - южный, ЮЗ - юго-западный, З - западный, СЗ - северо-западный.
Видимость - горизонтальная дальность видимости в метрах или километрах. При видимости от 1 до 10 км при отсутствии осадков обычно наблюдается дымка, при ухудшении видимости до 1 км и менее - туман. В сухую погоду видимость может ухудшаться дымом, пылью или мглою.
Явления - указаны атмосферные явления, наблюдавшиеся в срок или в последний час перед сроком; фигурными скобками обозначены явления, наблюдавшиеся между сроками (за 1-3 часа до срока); квадратными скобками обозначены град или гололедные отложения с указанием их диаметра в мм.
Облачность - указаны через наклонную черту общая и нижняя облачность в баллах и высота нижней границы облаков в метрах; квадратными скобками обозначены формы облаков: Ci - перистые, Cs - перисто-слоистые, Cc - перисто-кучевые, Ac - высококучевые, As - высокослоистые, Sc - слоисто-кучевые, Ns - слоисто-дождевые, Cu - кучевые, Cb - кучево-дождевые. Подробнее классификацию облаков см. в Атласе облаков (PDF).
T - Температура воздуха - температура, измеренная на высоте 2 м над землей.
Td - Температура точки росы - температура, при понижении до которой содержащийся в воздухе водяной пар достигнет насыщения.
f - Относительная влажность воздуха - влажноcть воздуха, измеренная на высоте 2 м над землей.
Te - Эффективная температура - температура, которую ощущает одетый по сезону человек в тени. Характеристика душности погоды. При расчете учитывается влияние влажности воздуха и скорости ветра на теплоощущения человека.
Tes - Эффективная температура на солнце - температура, которую ощущает человек, с поправкой на солнечный нагрев. Характеристика знойности погоды. Зависит от высоты солнца над горизонтом, облачности и скорости ветра. Ночью, в пасмурную погоду, а также при ветре 12 м/с и более поправка равна нулю.
P - Атмосферное давление - приведенное к уровню моря атмосферное давление.
Po - Атмосферное давление - измеренное на уровне метеостанции атмосферное давление.
Tmin - Минимальная температура - минимум температуры воздуха на высоте 2 м над землей.
Tmax - Максимальная температура - максимум температуры воздуха на высоте 2 м над землей.
R - Количество осадков - Количество выпавших осадков за период времени, мм. При наведении курсора мыши на число - период времени, за который выпало указанное количество осадков.
R24 - Количество осадков - Количество выпавших осадков за 24 часа, мм.
S - Снежный покров - Высота снежного покрова, см. При наведении курсора мыши на число - состояние снежного покрова и степень покрытия местности в баллах.